HUBBLE
1 20580U 90037B 08171.73841392 .00000318 00000-0 11752-4 0 1600
2 20580 028.4690 306.5931 0003408 054.0999 305.9908 15.00387443795363
PO-34
1 25520U 98064B 08170.38062753 .00000385 00000-0 91922-5 0 00255
2 25520 028.4593 170.7911 0005254 296.5203 063.4852 15.17201839533349
ISS
1 25544U 98067A 08170.94347382 .00017507 00000-0 10894-3 0 06921
2 25544 051.6427 007.3198 0005894 350.2420 096.0875 15.77053772548801
CO-58
1 28895U 05043F 08171.72530725 .00000095 00000-0 29461-4 0 498
2 28895 098.0992 065.6678 0018482 045.0989 315.1728 14.59676968140853
NCUBE2
1 28897U 05043H 08170.25018137 .00000079 00000-0 26089-4 0 05800
2 28897 098.0981 064.1579 0018379 049.2026 311.0764 14.59847182132922
FCAL
1 29667U 06055J 08146.34060426 .11864717 12752-4 73624-4 0 9790
2 29667 051.6107 065.3702 0009039 260.8350 099.5042 16.53464210 82911
FALCON
1 30776U 07006E 08170.96933700 .00000219 00000-0 19029-4 0 03361
2 30776 035.4325 142.6844 0001414 358.1828 001.8891 15.03005107070412
MAST
1 31126U 07012K 08171.71953993 -.00000066 00000-0 -39191-5 0 3554
2 31126 098.0386 236.0521 0094125 324.7707 034.7285 14.53428445 62387
CAPE1
1 31130U 07012P 08170.15679680 -.00000082 00000-0 -78911-5 0 03397
2 31130 098.0381 233.5589 0102422 332.4923 027.0850 14.51968614061869
CUTE1-7
1 32785U 08021C 08170.33529666 .00000238 00000-0 37310-4 0 00804
2 32785 097.9924 230.2531 0015655 128.8795 231.3815 14.81367698007570
COMPASS
1 32787U 08021E 08170.33359543 .00000329 00000-0 48778-4 0 00712
2 32787 097.9885 230.2243 0016633 130.7882 229.4774 14.81421798007578
AAUSAT2
1 32788U 08021F 08171.81573088 .00000422 00000-0 60588-4 0 727
2 32788 097.9885 231.7096 0016772 127.7503 232.5207 14.81532498 7791
DO-64
1 32789U 08021G 08170.94227896 .00000589 00000-0 82050-4 0 00816
2 32789 097.9911 230.8503 0016683 128.1667 232.1048 14.81410044007669
SEEDS
1 32791U 08021J 08170.13573835 .00000428 00000-0 61639-4 0 00785
2 32791 097.9930 230.0371 0016969 129.0062 231.2665 14.81281556007517
CANX-2
1 32797U 08021L 08169.11117159 .00001971 00000-0 25623-3 0 00337
2 32797 097.9923 229.0501 0018051 136.6067 223.6579 14.81732267006070
RS-30
1 32953U 08025A 08171.82453915 .00000010 00000-0 00000 0 0 352
2 32953 082.4998 121.9451 0017459 249.7553 110.1650 12.42997024 3375
